• Join FlightAware (Why Join?)
  • Login
  • US Flag 
04:34AM EST


 

Airport Tracker/Info


-or-


 

Live Flight TrackerFlight Track Log ✈ VRT51 ✈ 10-Oct-2013 ✈ KTMA - KSRB

Flight Track Log - Related Links

Times and Time Zones

All times are in EDT time to prevent confusion due to time zone crossing. See the VRT51 flight status page for this flight to view local times or setup timezone preferences in your user account.

Time Position Orientation Groundspeed Altitude Reporting Facility
EDT Latitude Longitude Course Direction KTS MPH feet Rate Location/Type
03:31PM 31.5114 -83.5311 340° North 221 254 3,800  Level Jacksonville Center
03:32PM 31.5697 -83.5558 340° North 248 285 6,300 2,814 Climbing Jacksonville Center
03:33PM 31.6344 -83.5831 340° North 289 333 9,100 2,949 Climbing Jacksonville Center
03:34PM 31.7114 -83.6106 343° North 289 333 12,100 3,565 Climbing Jacksonville Center
03:36PM 31.9214 -83.7036 339° North 318 366 21,400 3,594 Climbing Atlanta Center
03:37PM 32.0072 -83.7400 340° North 323 372 24,500 2,800 Climbing Atlanta Center
03:38PM 32.0969 -83.7767 341° North 334 384 27,000 2,200 Climbing Atlanta Center
03:39PM 32.1889 -83.8156 340° North 334 384 28,900 1,850 Climbing Atlanta Center
03:40PM 32.2850 -83.8569 340° North 347 399 30,700 1,550 Climbing Atlanta Center
03:41PM 32.3811 -83.8961 341° North 358 412 32,000 650 Climbing Atlanta Center
03:42PM 32.4875 -83.9428 340° North 379 436 32,000  Level Atlanta Center
03:43PM 32.5983 -83.9894 340° North 403 464 32,000  Level Atlanta Center
03:44PM 32.7089 -84.0389 339° North 415 478 32,000  Level Atlanta Center
03:45PM 32.8217 -84.0858 341° North 420 483 32,000  Level Atlanta Center
03:46PM 32.9322 -84.1353 339° North 425 489 32,000  Level Atlanta Center
03:47PM 33.0447 -84.1825 341° North 425 489 32,000  Level Atlanta Center
03:48PM 33.1428 -84.2297 338° Northwest 425 489 32,000  Level Atlanta Center
03:49PM 33.2556 -84.2747 342° North 430 495 32,000  Level Atlanta Center
03:50PM 33.3661 -84.3222 340° North 424 488 32,000  Level Atlanta Center
03:51PM 33.4808 -84.3725 340° North 424 488 32,000  Level Atlanta Center
03:52PM 33.6017 -84.4253 340° North 424 488 32,000  Level Atlanta Center
03:53PM 33.7081 -84.4733 339° North 431 496 32,000  Level Atlanta Center
03:54PM 33.8247 -84.5214 341° North 425 489 32,000  Level Atlanta Center
03:55PM 33.9392 -84.5822 336° Northwest 430 495 32,000  Level Atlanta Center
03:56PM 34.0497 -84.6206 344° North 430 495 32,000  Level Atlanta Center
03:57PM 34.1558 -84.6664 340° North 436 502 32,000  Level Atlanta Center
03:58PM 34.2661 -84.7150 340° North 436 502 32,000  Level Atlanta Center
03:59PM 34.3744 -84.7636 340° North 424 488 32,000 -900 Level Atlanta Center
04:00PM 34.4869 -84.8125 340° North 424 488 30,200 -1,900 Descending Atlanta Center
04:01PM 34.6097 -84.8667 340° North 423 487 28,200 -1,600 Descending Atlanta Center
04:02PM 34.7219 -84.9208 338° Northwest 430 495 27,000 -1,250 Descending Atlanta Center
04:03PM 34.8342 -84.9700 340° North 425 489 25,700 -1,500 Descending Atlanta Center
04:04PM 34.9508 -85.0219 340° North 430 495 24,000 -1,700 Descending Atlanta Center
04:05PM 35.0608 -85.0742 339° North 430 495 22,300 -1,850 Descending Atlanta Center
04:06PM 35.1711 -85.1236 340° North 430 495 20,300 -2,050 Descending Atlanta Center
04:07PM 35.2792 -85.1733 339° North 418 481 18,200 -2,036 Descending Atlanta Center
04:09PM 35.4733 -85.2406 344° North 410 472 14,600 -2,000 Descending Memphis Center
04:10PM 35.5811 -85.2747 346° North 405 466 12,600 -2,000 Descending Memphis Center
04:11PM 35.6750 -85.3250 336° Northwest 384 442 10,600 -1,900 Descending Memphis Center
04:12PM 35.7517 -85.3664 336° Northwest 351 404 8,800 -1,950 Descending Memphis Center
04:13PM 35.8219 -85.4058 336° Northwest 304 350 6,700 -2,100 Descending Memphis Center